Weather History for PHNL - May, 2014

Change the Weather History Date:

Friday, May 30, 2014

  Actual Average Record
Temperature  
Mean Temperature 81 °F 79 °F  
Max Temperature 86 °F 86 °F 92 °F (1992)
Min Temperature 75 °F 72 °F 65 °F (1975)
Degree Days  
Heating Degree Days 0 0  
Month to date heating degree days 0 0  
Since 1 July heating degree days 0 0  
Cooling Degree Days 16 14  
Month to date cooling degree days 399 382  
Year to date cooling degree days 1593 1489  
Growing Degree Days 30 (Base 50)    
Moisture  
Dew Point 65 °F    
Average Humidity 60    
Maximum Humidity 74    
Minimum Humidity 45    
Precipitation  
Precipitation 0.00 in 0.02 in 0.36 in (1967)
Month to date precipitation 3.35 0.61  
Year to date precipitation 9.97 7.56  
Snow  
Snow 0.00 in - - ()
Month to date snowfall 0.0  
Since 1 July snowfall 0.0  
Snow Depth 0.00 in    
Sea Level Pressure  
Sea Level Pressure 30.00 in    
Wind  
Wind Speed 13 mph (ENE)    
Max Wind Speed 21 mph    
Max Gust Speed 28 mph    
Visibility 10 miles    
Events      
T = Trace of Precipitation, MM = Missing Value Source: NWS Daily Summary

Daily Weather History Graph

Daily Weather History Graph

Search for Another Location

Airport or City:

Trip Planner

Search our weather history database for the weather conditions in past years. The results will help you decide how hot, cold, wet, or windy it might be!

Date:

Astronomy

May. 30, 2014 Rise Set
Actual Time 5:49 AM HST 7:09 PM HST
Civil Twilight 5:24 AM HST 7:33 PM HST
Nautical Twilight 4:55 AM HST 8:03 PM HST
Astronomical Twilight 4:25 AM HST 8:33 PM HST
Moon 7:36 AM HST (5/30) 9:02 PM HST (5/30)
Length of Visible Light 14h 08m
Length of Day
13h 19m
Waxing Crescent, 5% of the Moon is Illuminated
May 30
Waxing Crescent
Jun 5
First Quarter
Jun 12
Full
Jun 19
Last Quarter
Jun 26
New

Hourly Weather History & Observations

Time (HST) Temp. Heat Index Dew Point Humidity Pressure Visibility Wind Dir Wind Speed Gust Speed Precip Events Conditions
12:53 AM 75.9 °F - 66.0 °F 71% 30.01 in 10.0 mi ENE 12.7 mph - N/A   Scattered Clouds
1:53 AM 75.9 °F - 64.9 °F 69% 30.00 in 10.0 mi ENE 16.1 mph 20.7 mph N/A   Scattered Clouds
2:53 AM 75.0 °F - 64.0 °F 69% 29.99 in 10.0 mi NE 8.1 mph - N/A   Partly Cloudy
3:53 AM 75.9 °F - 64.9 °F 69% 29.99 in 10.0 mi NE 11.5 mph - N/A   Scattered Clouds
4:53 AM 75.9 °F - 64.9 °F 69% 29.99 in 10.0 mi ENE 12.7 mph - N/A   Scattered Clouds
5:53 AM 75.9 °F - 66.0 °F 71% 29.99 in 10.0 mi ENE 12.7 mph - N/A   Mostly Cloudy
6:53 AM 75.9 °F - 66.9 °F 74% 30.01 in 10.0 mi ENE 8.1 mph - N/A   Scattered Clouds
7:53 AM 78.1 °F - 66.0 °F 66% 30.02 in 10.0 mi ENE 9.2 mph - N/A   Scattered Clouds
8:53 AM 80.1 °F 82.3 °F 66.9 °F 64% 30.02 in 10.0 mi East 11.5 mph - N/A   Scattered Clouds
9:53 AM 82.0 °F 84.5 °F 66.9 °F 60% 30.03 in 10.0 mi NE 16.1 mph - N/A   Scattered Clouds
10:53 AM 82.9 °F 85.0 °F 66.0 °F 56% 30.02 in 10.0 mi NNE 17.3 mph 21.9 mph N/A   Scattered Clouds
11:53 AM 84.9 °F 86.6 °F 64.9 °F 51% 30.01 in 10.0 mi ENE 15.0 mph 25.3 mph N/A   Scattered Clouds
12:53 PM 84.9 °F 86.6 °F 64.9 °F 51% 29.99 in 10.0 mi ENE 10.4 mph 25.3 mph N/A   Scattered Clouds
1:53 PM 84.9 °F 86.1 °F 64.0 °F 49% 29.98 in 10.0 mi NE 16.1 mph 25.3 mph N/A   Mostly Cloudy
2:53 PM 86.0 °F 86.8 °F 63.0 °F 46% 29.97 in 10.0 mi NE 15.0 mph 21.9 mph N/A   Mostly Cloudy
3:53 PM 84.9 °F 85.9 °F 63.0 °F 48% 29.97 in 10.0 mi ENE 17.3 mph 25.3 mph N/A   Scattered Clouds
4:53 PM 82.9 °F 84.0 °F 63.0 °F 51% 29.96 in 10.0 mi ENE 13.8 mph - N/A   Scattered Clouds
5:53 PM 82.0 °F 83.4 °F 64.0 °F 54% 29.97 in 10.0 mi ENE 15.0 mph - N/A   Mostly Cloudy
6:53 PM 80.1 °F 81.9 °F 64.9 °F 60% 29.99 in 10.0 mi NE 15.0 mph 20.7 mph N/A   Mostly Cloudy
7:53 PM 79.0 °F - 66.0 °F 64% 30.00 in 10.0 mi ENE 9.2 mph - N/A   Mostly Cloudy
8:53 PM 78.1 °F - 64.9 °F 64% 30.01 in 10.0 mi NE 11.5 mph - N/A   Scattered Clouds
9:53 PM 78.1 °F - 64.9 °F 64% 30.03 in 10.0 mi NE 11.5 mph - N/A   Scattered Clouds
10:53 PM 77.0 °F - 64.9 °F 66% 30.03 in 10.0 mi ENE 11.5 mph - N/A   Partly Cloudy
11:53 PM 77.0 °F - 64.9 °F 66% 30.03 in 10.0 mi ENE 9.2 mph - N/A   Partly Cloudy